[[{"header":{"parameterUnit":"m.s-1","parameterCategory":1,"la1":30.2991,"la2":30.254,"lo1":-89.0895,"lo2":-89.0444,"dy":0.0017,"dx":0.0017,"nx":28,"ny":28,"refTime":"2024-04-25T21:00:00:Z","depth":0,"parameterNumber":2,"parameterNumberName":"U-component_of_WINDS"},"data":[0,0,0,0,0,0,0,0,0,0,0,0,0,0,0,0,0,0,0,0,0,0,0,0,0,0,0,0,0,0,0,0,0,0,0,0,0,0,0,0,0,0,0,0,0,0,0,0,0,0,0,0,0,0,0,0,0,0,-6.8883,-6.8883,0,-6.8942,-6.8943,-6.8944,-6.8917,-6.8916,-6.8914,-6.8913,-6.897,-6.8972,-6.8975,0,0,0,0,0,0,0,0,0,0,0,0,0,-6.8744,-6.8747,-6.8883,-6.8884,-6.8884,-6.8942,-6.8943,-6.8944,-6.8917,-6.8916,-6.8914,-6.8912,-6.8969,-6.8972,-6.8976,0,0,0,0,0,0,0,0,0,0,0,0,0,-6.8804,-6.8748,-6.8883,-6.8878,-6.8878,-6.8942,-6.8943,-6.8944,-6.8918,-6.8916,-6.8913,-6.8911,-6.8968,-6.8972,-6.8976,-6.9046,0,0,-6.8989,-6.8991,0,0,0,0,0,0,0,0,-6.8801,-6.8809,-6.8878,-6.8879,-6.8879,-6.892,-6.8915,-6.8978,-6.8918,-6.8903,-6.8913,-6.891,-6.8955,-6.896,-6.8976,-6.9049,-6.9051,-6.899,-6.8992,-6.8994,-6.8995,0,0,0,0,0,0,0,-6.8797,-6.8806,-6.8906,-6.8879,-6.888,-6.8873,-6.8879,-6.8927,-6.894,-6.8904,-6.8902,-6.891,-6.8954,-6.8972,-6.8977,-6.9052,-6.8989,-6.8993,-6.8996,-6.8998,-6.9187,-6.9189,0,0,0,0,0,0,-6.8793,-6.8803,-6.8904,-6.8908,-6.8834,-6.8877,-6.8884,-6.8909,-6.8939,-6.8942,-6.8912,-6.8908,-6.8965,-6.8972,-6.8979,-6.9062,-6.8994,-6.8998,-6.9001,-6.9185,-6.9188,-6.919,0,0,0,0,0,0,-6.879,-6.8802,-6.8902,-6.8855,-6.8867,-6.8882,-6.891,-6.8911,-6.8928,-6.8945,-6.8947,-6.8927,-6.8964,-6.8973,-6.903,-6.9064,-6.9,-6.9004,-6.9182,-6.9186,-6.9189,-6.9231,0,0,0,0,0,0,-6.8786,-6.8801,-6.8828,-6.8856,-6.887,-6.8953,-6.8912,-6.8914,-6.8936,-6.8933,-6.896,-6.8962,-6.8963,-6.9024,-6.9034,-6.9069,-6.9007,-6.9179,-6.9184,-6.9188,-6.9226,-6.9235,-6.9243,0,0,0,0,0,-6.8781,-6.8836,-6.883,-6.8842,-6.8904,-6.8955,-6.8963,-6.8963,-6.8939,-6.8966,-6.8978,-6.8962,-6.906,-6.903,-6.9042,-6.9078,-6.9176,-6.9182,-6.9187,-6.9222,-6.9233,-6.9243,0,0,0,0,0,0,-6.881,-6.884,-6.8833,-6.8899,-6.8925,-6.895,-6.8984,-6.8975,-6.9006,-6.9001,-6.9,-6.9006,-6.9066,-6.9078,-6.9045,-6.9148,-6.9114,-6.9122,-6.9137,-6.9147,-6.9156,-6.915,-6.9011,0,0,0,0,0,-6.8825,-6.8864,-6.8888,-6.8944,-6.8958,-6.8969,-6.8991,-6.899,-6.9016,-6.9026,-6.9041,-6.9066,-6.9103,-6.9127,-6.9161,-6.923,-6.9234,-6.9261,-6.9269,-6.9276,-6.9281,-6.9318,-6.933,-6.9208,-6.9208,-6.9208,0,0,-6.8853,-6.8875,-6.8899,-6.895,-6.897,-6.901,-6.8978,-6.9021,-6.9051,-6.9032,-6.9087,-6.91,-6.9128,-6.9191,-6.922,-6.9203,-6.9317,-6.9283,-6.9288,-6.929,-6.9325,-6.9337,-6.9347,-6.9212,-6.9211,-6.9211,0,0,-6.8926,-6.8948,-6.8996,-6.9018,-6.9049,-6.9057,-6.9069,-6.9098,-6.9105,-6.9162,-6.9149,-6.9184,-6.9247,-6.9268,-6.9286,-6.9372,-6.9358,-6.9384,-6.9425,-6.9462,-6.9471,-6.9479,-6.9508,-6.9518,-6.939,-6.939,-6.939,0,-6.8957,-6.9018,-6.9022,-6.9067,-6.909,-6.9078,-6.9127,-6.9148,-6.9188,-6.9204,-6.9186,-6.9266,-6.9284,-6.9352,-6.9373,-6.9389,-6.9402,-6.9378,-6.947,-6.9478,-6.9486,-6.9513,-6.9524,-6.9393,-6.9393,-6.9392,-6.9392,0,-6.9055,-6.9097,-6.9133,-6.9175,-6.9202,-6.9249,-6.9259,-6.9286,-6.9284,-6.9294,-6.9351,-6.9374,-6.9413,-6.943,-6.9427,-6.9498,-6.9487,-6.947,-6.9435,-6.95,-6.9525,-6.9536,-6.9397,-6.9396,-6.9395,-6.9394,0,0,-6.9142,-6.9188,-6.9201,-6.922,-6.9256,-6.9288,-6.9336,-6.9376,-6.9398,-6.9429,-6.9467,-6.9523,-6.9508,-6.9529,-6.953,-6.9562,-6.9627,-6.9541,-6.9542,-6.9554,-6.9705,-6.9715,-6.9727,-6.962,-6.9622,-6.9624,-6.9702,0,-6.9215,-6.9298,-6.9305,-6.9379,-6.9418,-6.941,-6.9451,-6.9478,-6.949,-6.9524,-6.9537,-6.9576,-6.9554,-6.9567,-6.9599,-6.9612,-6.9657,-6.9607,-6.9654,-6.9655,-6.9643,-6.974,-6.9751,-6.9822,-6.9712,-6.9714,-6.9715,0,-6.931,-6.9345,-6.9424,-6.9456,-6.9473,-6.951,-6.9548,-6.9582,-6.9612,-6.9618,-6.9645,-6.9642,-6.969,-6.9658,-6.9723,-6.969,-6.971,-6.972,-6.9723,-6.9724,-6.9686,-6.9741,-6.9846,-6.9855,-6.9731,-6.973,-6.9728,0,-6.9363,-6.943,-6.9486,-6.9503,-6.9543,-6.9569,-6.9586,-6.9615,-6.9639,-6.9673,-6.9688,-6.9727,-6.9747,-6.9777,-6.9785,-6.9761,-6.985,-6.9819,-6.9855,-6.9855,-6.987,-6.9868,-6.9976,-6.989,-6.989,-6.9889,-6.9889,0,-6.9442,-6.949,-6.951,-6.9544,-6.9598,-6.9606,-6.9659,-6.9675,-6.9701,-6.9738,-6.9734,-6.9768,-6.9778,-6.9814,-6.9821,-6.9874,-6.9884,-6.9889,-6.9889,-6.9887,-6.9886,-6.9897,-6.9891,-6.9892,-6.9892,-6.9891,-6.9891,0,-6.9508,-6.9524,-6.9584,-6.9618,-6.9628,-6.9666,-6.9694,-6.9727,-6.974,-6.9786,-6.9798,-6.9818,-6.986,-6.9872,-6.9923,-6.9927,-6.9989,-6.9986,-6.9978,-6.9977,-7.0012,-7.0008,-7.0128,-7.0143,-7.005,-7.0051,-7.0051,0,-6.9555,-6.9592,-6.9631,-6.9656,-6.9675,-6.9716,-6.9741,-6.9752,-6.9779,-6.9818,-6.9846,-6.9889,-6.9923,-6.9991,-7.001,-7.0049,-7.0045,-7.0085,-7.005,-7.0047,-7.0042,-7.0039,-7.0042,-7.009,-7.0091,-7.0091,-7.0092,0,-6.9637,-6.9644,-6.9681,-6.9723,-6.9754,-6.9786,-6.9818,-6.9838,-6.9854,-6.9884,-6.9929,-6.9956,-7.0009,-7.0051,-7.0091,-7.0108,-7.0102,-7.0104,-7.0114,-7.011,-7.0103,-7.0104,-6.9992,-7.01,-7.0099,-7.0098,-7.0098,-7.0098,-6.9693,-6.9725,-6.9758,-6.9801,-6.9827,-6.9857,-6.9889,-6.9908,-6.9946,-6.999,-6.9995,-7.0043,-7.0074,-7.0128,-7.0149,-7.0186,-7.0174,-7.0189,-7.0192,-7.0195,-7.0196,-7.0101,-7.0194,-7.0193,-7.0193,-7.0193,-7.0193,0,-6.9772,-6.9794,-6.9833,-6.9878,-6.9912,-6.9908,-6.9943,-6.997,-7.0013,-7.0044,-7.0079,-7.013,-7.0172,-7.0196,-7.0237,-7.0262,-7.0261,-7.0272,-7.0269,-7.0273,-7.0206,-7.0192,-7.0273,-7.0273,-7.0273,-7.0273,-7.0273,-7.0273,-6.9817,-6.9871,-6.9883,-6.9951,-6.9973,-7.002,-7.0041,-7.0069,-7.0093,-7.0151,-7.0187,-7.0203,-7.0231,-7.0275,-7.0313,-7.0319,-7.0333,-7.0346,-7.035,-7.0286,-7.0277,-7.0269,-7.0256,-7.035,-7.035,-7.0413,-7.0414,-7.0414]},{"header":{"parameterUnit":"m.s-1","parameterCategory":1,"la1":30.2991,"la2":30.254,"lo1":-89.0895,"lo2":-89.0444,"dy":0.0017,"dx":0.0017,"nx":28,"ny":28,"refTime":"2024-04-25T21:00:00:Z","depth":0,"parameterNumber":3,"parameterNumberName":"V-component_of_WINDS"},"data":[0,0,0,0,0,0,0,0,0,0,0,0,0,0,0,0,0,0,0,0,0,0,0,0,0,0,0,0,0,0,0,0,0,0,0,0,0,0,0,0,0,0,0,0,0,0,0,0,0,0,0,0,0,0,0,0,0,0,3.4221,3.4222,0,3.4242,3.4242,3.4242,3.43,3.4302,3.4303,3.4304,3.4318,3.4318,3.4317,0,0,0,0,0,0,0,0,0,0,0,0,0,3.4228,3.4227,3.4221,3.4222,3.4222,3.4242,3.4242,3.4242,3.43,3.4302,3.4303,3.4305,3.4319,3.4318,3.4317,0,0,0,0,0,0,0,0,0,0,0,0,0,3.4234,3.4227,3.4221,3.4253,3.4256,3.4242,3.4242,3.4243,3.43,3.4302,3.4304,3.4306,3.4319,3.4318,3.4317,3.4271,0,0,3.4313,3.4312,0,0,0,0,0,0,0,0,3.4234,3.4234,3.4248,3.4251,3.4255,3.4271,3.425,3.4252,3.4299,3.4283,3.4304,3.4306,3.43,3.4301,3.43,3.4271,3.4272,3.4313,3.4312,3.4311,3.4311,0,0,0,0,0,0,0,3.4233,3.4233,3.4229,3.4248,3.4252,3.4265,3.4268,3.425,3.428,3.4285,3.4289,3.4291,3.4302,3.4301,3.4301,3.4272,3.4313,3.4312,3.4311,3.431,3.4209,3.4207,0,0,0,0,0,0,3.4229,3.4232,3.4229,3.423,3.4249,3.4264,3.4267,3.4263,3.4281,3.4286,3.4289,3.4294,3.4303,3.4302,3.4302,3.4251,3.4311,3.431,3.431,3.4211,3.4209,3.4207,0,0,0,0,0,0,3.4229,3.4228,3.4228,3.4233,3.4234,3.4262,3.4257,3.4263,3.4262,3.4285,3.429,3.4283,3.4304,3.4304,3.4279,3.4252,3.431,3.4309,3.4213,3.421,3.4208,3.4148,0,0,0,0,0,0,3.4229,3.4228,3.4211,3.4232,3.4233,3.4206,3.4255,3.4262,3.426,3.4266,3.428,3.4284,3.4306,3.4281,3.4278,3.4252,3.4308,3.4216,3.4212,3.4209,3.4152,3.4143,3.4136,0,0,0,0,0,3.4229,3.4191,3.421,3.4209,3.4213,3.4204,3.4205,3.4232,3.4258,3.4242,3.4257,3.4284,3.4256,3.4278,3.4275,3.4248,3.4218,3.4213,3.4209,3.4156,3.4145,3.4136,0,0,0,0,0,0,3.4164,3.4195,3.4216,3.4184,3.4192,3.4214,3.4194,3.4219,3.4217,3.4223,3.4255,3.4257,3.4229,3.4236,3.426,3.4206,3.4241,3.4236,3.4202,3.4192,3.4184,3.4182,3.4307,0,0,0,0,0,3.4147,3.4138,3.4165,3.4134,3.4137,3.4165,3.4162,3.4183,3.4191,3.4193,3.4206,3.4211,3.4204,3.4198,3.4193,3.4154,3.4158,3.4135,3.4126,3.4119,3.4114,3.4096,3.4086,3.4192,3.4192,3.4192,0,0,3.4109,3.4125,3.4117,3.4122,3.413,3.412,3.4167,3.4153,3.4146,3.419,3.417,3.4179,3.4187,3.4156,3.4143,3.4161,3.4086,3.4113,3.4108,3.4107,3.4091,3.4081,3.4072,3.4189,3.419,3.419,0,0,3.4037,3.4047,3.4025,3.4033,3.4046,3.4065,3.406,3.4079,3.4089,3.4069,3.4103,3.4094,3.408,3.4085,3.4086,3.4018,3.4044,3.4015,3.3971,3.3953,3.3945,3.3938,3.3915,3.3906,3.4011,3.401,3.401,0,3.3988,3.3976,3.4009,3.3995,3.3996,3.404,3.4017,3.4022,3.4031,3.4031,3.4052,3.4038,3.4046,3.4018,3.4002,3.4001,3.3995,3.4014,3.3944,3.3937,3.3931,3.3909,3.39,3.4007,3.4007,3.4008,3.4008,0,3.3916,3.3907,3.3887,3.3899,3.3898,3.3878,3.3908,3.3903,3.3925,3.3942,3.3921,3.3933,3.3932,3.3927,3.3946,3.3902,3.3913,3.3938,3.3975,3.3917,3.3897,3.3889,3.4002,3.4003,3.4004,3.4005,0,0,3.3801,3.3835,3.3826,3.3833,3.3852,3.3845,3.3829,3.3831,3.3826,3.3831,3.3818,3.3808,3.3832,3.3833,3.3854,3.3838,3.3786,3.3866,3.3866,3.3851,3.3739,3.3721,3.3711,3.3804,3.3802,3.3801,3.3739,0,3.3734,3.3709,3.374,3.3708,3.3701,3.3744,3.373,3.3739,3.3755,3.375,3.3766,3.3759,3.3792,3.3793,3.3779,3.3795,3.3764,3.38,3.3791,3.379,3.3788,3.37,3.368,3.3621,3.3732,3.373,3.3729,0,3.3651,3.3657,3.3625,3.3649,3.3647,3.3634,3.3639,3.3634,3.3646,3.3659,3.3662,3.3688,3.3673,3.3709,3.3689,3.3712,3.3711,3.3718,3.3717,3.3716,3.3756,3.3698,3.3603,3.3594,3.3717,3.3718,3.3719,0,3.3572,3.3571,3.3553,3.3557,3.3584,3.3574,3.3585,3.3599,3.3599,3.3603,3.3603,3.3604,3.3605,3.3605,3.3631,3.3655,3.3608,3.3645,3.3617,3.3617,3.3605,3.3605,3.3508,3.3603,3.3603,3.3603,3.3603,0,3.3494,3.3473,3.3519,3.3507,3.3485,3.3521,3.3498,3.3512,3.3525,3.3517,3.3553,3.3544,3.3579,3.3574,3.3594,3.3575,3.3574,3.3584,3.3589,3.3581,3.358,3.358,3.3584,3.3601,3.3602,3.3602,3.3602,0,3.3402,3.3431,3.3414,3.3443,3.3449,3.3432,3.3456,3.3446,3.3465,3.3454,3.3454,3.3483,3.3479,3.3506,3.3505,3.3519,3.349,3.3502,3.3487,3.3491,3.3462,3.3465,3.3361,3.335,3.3452,3.3451,3.345,0,3.335,3.3336,3.3363,3.3362,3.3371,3.3367,3.3369,3.3403,3.3403,3.3418,3.3406,3.3406,3.3407,3.3399,3.3419,3.342,3.3433,3.3397,3.3433,3.3425,3.3433,3.3434,3.3433,3.3389,3.3387,3.3386,3.3385,0,3.3255,3.3272,3.3273,3.328,3.3281,3.3288,3.3297,3.3293,3.3331,3.3328,3.3326,3.3328,3.333,3.3329,3.3334,3.3344,3.3371,3.3374,3.3368,3.3359,3.3351,3.3356,3.3467,3.3376,3.3377,3.3378,3.3378,3.3379,3.3182,3.3173,3.3192,3.3193,3.3204,3.3212,3.3205,3.3225,3.3225,3.3231,3.3251,3.3246,3.326,3.327,3.3277,3.3273,3.329,3.3281,3.3278,3.3276,3.3271,3.3352,3.3274,3.3274,3.3275,3.3275,3.3275,0,3.3091,3.3106,3.3107,3.312,3.3121,3.3149,3.3161,3.3159,3.3155,3.3167,3.3169,3.3168,3.3168,3.319,3.3192,3.3185,3.3197,3.3184,3.3185,3.3187,3.3255,3.3261,3.3174,3.3174,3.3174,3.3174,3.3174,3.3174,3.3043,3.3029,3.3048,3.3039,3.3054,3.3052,3.3056,3.3064,3.3074,3.3072,3.3073,3.3088,3.3104,3.3109,3.3111,3.3117,3.3116,3.3099,3.311,3.3172,3.3182,3.3191,3.3197,3.3099,3.3099,3.3042,3.3042,3.3041]}]]